Location: Serpentine
(32.3617°S, 115.9768°E)
Time: 07:34:42
(UTC+08:00)

X-37B - Pass Details

Date: 11 December 2021
Orbit: 334 x 337 km, 45.0° (Epoch: 11 January)

Event Time Altitude Azimuth Distance (km) Brightness Sun altitude
Exits shadow 04:24:21 - 282° (WNW) 1,335 2.7 -7.7°
Reaches altitude 10° 04:24:28 10° 281° (W) 1,286 2.6 -7.7°
Maximum altitude 04:27:12 37° 210° (SSW) 547 1.4 -7.2°
Drops below altitude 10° 04:29:57 10° 139° (SE) 1,298 4.7 -6.7°
Sets 04:32:03 0° 131° (SE) 2,143 6.7 -6.4°
